GMT,Max TemperatureF,Mean TemperatureF,Min TemperatureF,Max Dew PointF,MeanDew PointF,Min DewpointF,Max Humidity, Mean Humidity, Min Humidity, Max Sea Level PressureIn, Mean Sea Level PressureIn, Min Sea Level PressureIn, Max VisibilityMiles, Mean VisibilityMiles, Min VisibilityMiles, Max Wind SpeedMPH, Mean Wind SpeedMPH, Max Gust SpeedMPH,PrecipitationIn, CloudCover, Events, WindDirDegrees
2012-11-1,44,38,32,39,35,32,100,88,70,28.80,28.74,28.71,6,6,1,17,5,,0.00,4,Fog-Rain,225
2012-11-2,46,40,35,41,37,32,93,82,66,29.18,28.90,28.68,6,6,6,22,14,,0.00,4,Rain,242
2012-11-3,44,36,28,37,31,28,100,87,66,29.27,29.21,29.18,6,6,6,14,3,,0.00,1,,202
2012-11-4,44,35,26,37,32,27,100,94,76,29.62,29.40,29.27,6,6,3,9,2,,0.00,2,,64
2012-11-5,48,38,28,37,34,28,100,88,66,29.98,29.80,29.62,6,5,0,8,4,,0.00,2,Fog,258
2012-11-6,53,44,35,48,43,32,93,86,76,30.04,29.94,29.86,6,6,2,18,13,,0.00,2,Rain,252
2012-11-7,51,50,48,48,45,43,94,86,82,30.04,29.91,29.80,6,6,4,28,18,38,0.00,5,Rain,243
2012-11-8,51,48,44,45,42,41,93,82,67,29.89,29.83,29.71,6,6,6,21,15,,0.00,2,,247
2012-11-9,50,46,42,46,43,37,93,84,76,29.71,29.45,29.33,6,6,4,21,15,,0.00,4,Rain,223
2012-11-10,48,42,37,41,38,34,100,85,71,29.47,29.31,29.27,6,6,6,16,10,,0.00,2,Rain,238
2012-11-11,46,39,32,41,36,30,100,88,76,29.98,29.77,29.47,6,6,6,9,6,,0.00,1,,252
2012-11-12,53,40,26,52,40,27,100,94,87,29.98,29.89,29.83,6,6,5,14,4,,0.00,5,Rain,236
2012-11-13,57,52,48,52,50,46,100,86,72,30.09,29.97,29.92,6,6,4,25,12,40,0.00,5,Rain,216
2012-11-14,50,44,39,48,46,37,100,95,87,30.24,30.16,30.09,6,4,1,9,3,,0.00,6,Fog-Rain,247
2012-11-15,51,42,33,50,42,34,100,94,82,30.24,30.09,29.95,6,4,0,15,5,,0.00,4,Fog,232
2012-11-16,48,44,39,46,40,37,93,84,71,29.92,29.81,29.68,6,6,6,16,9,,0.00,4,Rain,234
2012-11-17,44,38,33,43,38,34,100,88,76,29.68,29.63,29.59,6,6,6,18,8,,0.00,3,Rain,239
2012-11-18,44,38,33,39,35,32,100,86,76,29.80,29.75,29.65,6,6,6,16,10,,0.00,2,Rain,221
2012-11-19,53,47,41,48,44,37,87,80,71,29.62,29.39,29.27,6,6,5,31,17,46,0.00,4,Rain,203
2012-11-20,57,52,46,50,45,39,87,78,71,29.56,29.44,29.33,6,6,6,28,11,39,0.00,4,,195
2012-11-21,50,42,33,43,38,32,93,85,71,29.71,29.66,29.56,6,6,6,15,7,,0.00,2,,209
2012-11-22,53,47,41,48,42,37,93,83,72,29.62,29.39,29.27,6,6,4,25,13,48,0.00,5,Rain,200
2012-11-23,46,40,35,39,37,34,93,84,71,29.83,29.60,29.33,6,6,4,20,13,31,0.00,3,Rain,231
2012-11-24,39,34,30,36,33,28,100,91,87,29.95,29.86,29.65,6,6,6,9,5,,0.00,3,Rain,282
2012-11-25,42,38,33,41,38,32,100,95,87,29.65,29.54,29.44,6,6,0,13,6,,0.00,6,Fog-Rain,313
2012-11-26,44,38,33,37,37,34,100,83,76,29.83,29.72,29.62,6,6,6,13,6,,0.00,4,,352
2012-11-27,44,40,35,37,34,32,87,77,71,30.09,29.97,29.83,6,6,6,9,6,,0.00,5,,321
2012-11-28,41,34,26,32,28,25,93,77,61,30.12,30.09,30.06,6,6,6,7,5,,0.00,1,,285
2012-11-29,35,30,24,30,27,23,93,88,75,30.09,29.95,29.83,6,6,6,7,4,,0.00,3,,252
2012-11-30,39,32,24,34,30,23,100,89,75,29.89,29.86,29.83,6,5,3,7,4,,0.00,5,Rain-Snow,252